Watsonville, CA

7:11 PM PST on December 11, 2017 (GMT -0800)
Watsonville Municipal

Weather History for KWVI - February, 2014

Change the Weather History Date:

Sunday, February 2, 2014

  Actual Average Record
Temperature  
Mean Temperature 46 °F 51 °F  
Max Temperature 53 °F 62 °F 77 °F (2009)
Min Temperature 38 °F 41 °F 32 °F (2002)
Degree Days  
Heating Degree Days 19    
Month to date heating degree days 37  
Since 1 July heating degree days 1459  
Cooling Degree Days 0    
Month to date cooling degree days 0  
Year to date cooling degree days 0  
Moisture  
Dew Point 40 °F    
Average Humidity 82    
Maximum Humidity 96    
Minimum Humidity 68    
Precipitation  
Precipitation 0.28 in - 1.39 in (1960)
Month to date precipitation 0.28  
Year to date precipitation 0.33  
Since 1 July precipitation 1.40  
Sea Level Pressure  
Sea Level Pressure 29.95 in    
Wind  
Wind Speed 4 mph (NE)    
Max Wind Speed 15 mph    
Max Gust Speed 24 mph    
Visibility 10 miles    
Events Rain    
T = Trace of Precipitation, MM = Missing Value Source: NWS Daily Summary

Daily Weather History Graph

Daily Weather History Graph

Search for Another Location

Airport or City:

Trip Planner

Search our weather history database for the weather conditions in past years. The results will help you decide how hot, cold, wet, or windy it might be!

Date:

Astronomy

Feb. 02, 2014 Rise Set
Actual Time 7:08 AM PST 5:33 PM PST
Civil Twilight 6:41 AM PST 6:00 PM PST
Nautical Twilight 6:10 AM PST 6:31 PM PST
Astronomical Twilight 5:39 AM PST 7:02 PM PST
Moon 8:44 AM PST (2/2) 9:16 PM PST (2/2)
Length of Visible Light 11h 19m
Length of Day
10h 25m
Waxing Crescent, 12% of the Moon is Illuminated
Feb 2
Waxing Crescent
Feb 6
First Quarter
Feb 14
Full
Feb 22
Last Quarter
Mar 1
New

Hourly Weather History & Observations

Time (PST) Temp. Windchill Dew Point Humidity Pressure Visibility Wind Dir Wind Speed Gust Speed Precip Events Conditions
12:53 AM 42.1 °F - 35.1 °F 76% 30.08 in 10.0 mi Calm Calm - N/A   Clear
1:53 AM 42.1 °F - 36.0 °F 79% 30.07 in 10.0 mi Calm Calm - N/A   Clear
2:53 AM 43.0 °F - 37.0 °F 80% 30.05 in 10.0 mi Calm Calm - N/A   Overcast
3:53 AM 41.0 °F 39.0 °F 36.0 °F 82% 30.02 in 10.0 mi NW 3.5 mph - N/A   Partly Cloudy
4:53 AM 42.1 °F 40.2 °F 36.0 °F 79% 30.00 in 10.0 mi North 3.5 mph - N/A   Clear
5:53 AM 39.9 °F 36.7 °F 36.0 °F 86% 29.98 in 10.0 mi NNW 4.6 mph - N/A   Clear
6:53 AM 42.1 °F 40.2 °F 36.0 °F 79% 29.97 in 10.0 mi North 3.5 mph - N/A   Mostly Cloudy
7:53 AM 42.1 °F 38.4 °F 37.9 °F 85% 29.95 in 10.0 mi NNE 5.8 mph - 0.02 in Rain Light Rain
8:53 AM 43.0 °F - 41.0 °F 93% 29.96 in 7.0 mi Calm Calm - 0.07 in Rain Light Rain
9:53 AM 43.0 °F - 39.9 °F 89% 29.98 in 5.0 mi Calm Calm - 0.12 in Rain Rain
10:53 AM 46.9 °F - 45.0 °F 93% 29.94 in 10.0 mi NE 9.2 mph - 0.07 in   Overcast
11:53 AM 48.9 °F - 42.1 °F 77% 29.92 in 10.0 mi East 8.1 mph - 0.00 in Rain Light Rain
12:09 PM 48.2 °F - 42.8 °F 82% 29.91 in 10.0 mi East 4.6 mph - 0.00 in   Overcast
12:53 PM 50.0 °F - 43.0 °F 77% 29.88 in 10.0 mi East 12.7 mph 17.3 mph 0.00 in   Overcast
1:11 PM 50.0 °F - 42.8 °F 76% 29.87 in 10.0 mi East 5.8 mph - 0.00 in   Scattered Clouds
1:53 PM 51.1 °F - 43.0 °F 74% 29.88 in 10.0 mi SSE 5.8 mph - 0.00 in Rain Light Rain
2:53 PM 52.0 °F - 43.0 °F 71% 29.88 in 10.0 mi East 5.8 mph - 0.00 in   Scattered Clouds
3:53 PM 53.1 °F - 44.1 °F 71% 29.89 in 10.0 mi SE 5.8 mph - 0.00 in   Mostly Cloudy
4:53 PM 51.1 °F - 41.0 °F 68% 29.89 in 10.0 mi ESE 5.8 mph - N/A   Clear
5:53 PM 50.0 °F - 41.0 °F 71% 29.90 in 10.0 mi Calm Calm - N/A   Scattered Clouds
6:53 PM 50.0 °F - 41.0 °F 71% 29.91 in 10.0 mi NE 3.5 mph - N/A   Mostly Cloudy
7:53 PM 48.0 °F - 39.9 °F 74% 29.91 in 10.0 mi Calm Calm - N/A   Clear
8:53 PM 45.0 °F 43.5 °F 39.9 °F 82% 29.93 in 10.0 mi North 3.5 mph - N/A   Clear
9:53 PM 46.0 °F 44.8 °F 39.0 °F 76% 29.95 in 10.0 mi NE 3.5 mph - N/A   Clear
10:53 PM 43.0 °F 41.3 °F 37.9 °F 82% 29.97 in 10.0 mi North 3.5 mph - N/A   Clear
11:53 PM 41.0 °F 38.0 °F 37.9 °F 89% 29.98 in 10.0 mi NW 4.6 mph - N/A   Partly Cloudy